EJA237 KPDX-KSDL

Flight info

Callsign EJA237
Flight time 2h 7m
Altitude 41000
Route WHAMY5 KOATA Q35 NEERO BERYL DOZIT FLG DSERT2
Aircraft CL60/M-SBDE1E2E3FGHIJ1J4J5J7M3RWXYZ/LB1V1D1

Departure

Time 2026-04-23 20:18
Airport Portland International Airport (KPDX)

Arrival

Time 2026-04-23 22:26
Airport Scottsdale Airport (KSDL)
Time Latitude Longitude Altitude Speed Heading
2026-04-23 19:49 45.58537 -122.57873 28 ft 0 kts 119°
2026-04-23 20:14 45.58533 -122.57853 28 ft 4 kts 98°
2026-04-23 20:14 45.58559 -122.57822 28 ft 4 kts 25°
2026-04-23 20:14 45.58563 -122.57773 28 ft 7 kts 118°
2026-04-23 20:15 45.58555 -122.57701 28 ft 7 kts 34°
2026-04-23 20:15 45.58602 -122.57657 29 ft 5 kts 55°
2026-04-23 20:15 45.58586 -122.57590 29 ft 9 kts 119°
2026-04-23 20:15 45.58545 -122.57486 29 ft 14 kts 119°
2026-04-23 20:16 45.58492 -122.57347 30 ft 17 kts 119°
2026-04-23 20:16 45.58437 -122.57208 30 ft 14 kts 119°
2026-04-23 20:16 45.58381 -122.57066 30 ft 17 kts 120°
2026-04-23 20:16 45.58345 -122.56971 31 ft 7 kts 117°
2026-04-23 20:17 45.58344 -122.56909 31 ft 5 kts 37°
2026-04-23 20:17 45.58393 -122.56873 31 ft 9 kts 26°
2026-04-23 20:17 45.58422 -122.56860 31 ft 4 kts 339°
2026-04-23 20:17 45.58438 -122.56889 31 ft 0 kts 297°
2026-04-23 20:18 45.58487 -122.57015 31 ft 55 kts 298°
2026-04-23 20:18 45.58861 -122.57974 40 ft 154 kts 298°
2026-04-23 20:18 45.59427 -122.59390 855 ft 174 kts 297°
2026-04-23 20:18 45.60002 -122.60951 1904 ft 190 kts 298°
2026-04-23 20:19 45.60625 -122.62700 2827 ft 205 kts 297°
2026-04-23 20:19 45.61254 -122.64620 3845 ft 226 kts 289°
2026-04-23 20:19 45.61712 -122.66798 5060 ft 243 kts 288°
2026-04-23 20:19 45.62400 -122.68967 6478 ft 251 kts 298°
2026-04-23 20:20 45.63251 -122.71121 7984 ft 254 kts 302°
2026-04-23 20:20 45.64113 -122.73216 9522 ft 251 kts 303°
2026-04-23 20:20 45.64970 -122.75336 10889 ft 254 kts 302°
2026-04-23 20:20 45.65852 -122.77512 12078 ft 262 kts 303°
2026-04-23 20:21 45.66695 -122.79829 13150 ft 275 kts 292°
2026-04-23 20:21 45.66995 -122.82533 14302 ft 287 kts 272°
2026-04-23 20:21 45.66567 -122.85365 15394 ft 302 kts 254°
2026-04-23 20:21 45.65528 -122.88017 16471 ft 317 kts 237°
2026-04-23 20:22 45.63927 -122.90226 17293 ft 337 kts 219°
2026-04-23 20:22 45.61685 -122.91663 17718 ft 370 kts 194°
2026-04-23 20:22 45.59038 -122.91649 18251 ft 393 kts 168°
2026-04-23 20:22 45.56456 -122.90237 19100 ft 401 kts 149°
2026-04-23 20:23 45.54311 -122.87839 20264 ft 396 kts 131°
2026-04-23 20:23 45.52729 -122.84663 21226 ft 394 kts 113°
2026-04-23 20:23 45.51592 -122.81121 22161 ft 396 kts 110°
2026-04-23 20:23 45.50483 -122.77515 23048 ft 400 kts 110°
2026-04-23 20:24 45.49358 -122.73879 23897 ft 404 kts 110°
2026-04-23 20:24 45.48195 -122.70131 24716 ft 409 kts 110°
2026-04-23 20:24 45.47034 -122.66392 25454 ft 415 kts 110°
2026-04-23 20:24 45.45870 -122.62652 26224 ft 418 kts 110°
2026-04-23 20:25 45.44667 -122.58794 26951 ft 422 kts 110°
2026-04-23 20:25 45.43478 -122.54989 27596 ft 426 kts 110°
2026-04-23 20:25 45.42271 -122.51129 28237 ft 430 kts 109°
2026-04-23 20:25 45.41047 -122.47221 28822 ft 434 kts 110°
2026-04-23 20:26 45.39813 -122.43288 29437 ft 437 kts 109°
2026-04-23 20:26 45.38565 -122.39322 29994 ft 441 kts 109°
2026-04-23 20:26 45.37295 -122.35290 30579 ft 443 kts 109°
2026-04-23 20:26 45.36031 -122.31280 31027 ft 447 kts 110°
2026-04-23 20:27 45.34752 -122.27231 31472 ft 450 kts 110°
2026-04-23 20:27 45.33476 -122.23206 32258 ft 444 kts 109°
2026-04-23 20:27 45.32217 -122.19242 33085 ft 436 kts 108°
2026-04-23 20:27 45.30973 -122.15336 33883 ft 428 kts 108°
2026-04-23 20:28 45.29768 -122.11548 34559 ft 422 kts 108°
2026-04-23 20:28 45.28554 -122.07741 35086 ft 420 kts 108°
2026-04-23 20:28 45.27365 -122.04011 35476 ft 419 kts 108°
2026-04-23 20:28 45.26137 -122.00223 35765 ft 423 kts 111°
2026-04-23 20:29 45.24635 -121.96596 36064 ft 430 kts 120°
2026-04-23 20:29 45.22795 -121.93227 36252 ft 436 kts 124°
2026-04-23 20:29 45.20873 -121.89894 36471 ft 437 kts 124°
2026-04-23 20:29 45.18941 -121.86539 36724 ft 438 kts 125°
2026-04-23 20:30 45.17024 -121.83209 37062 ft 438 kts 126°
2026-04-23 20:30 45.13174 -121.76539 37772 ft 436 kts 126°
2026-04-23 20:30 45.11258 -121.73222 38084 ft 436 kts 127°
2026-04-23 20:31 45.09358 -121.69936 38363 ft 437 kts 127°
2026-04-23 20:31 45.07413 -121.66576 38612 ft 438 kts 127°
2026-04-23 20:31 45.05485 -121.63250 38883 ft 438 kts 128°
2026-04-23 20:31 45.03565 -121.59941 39185 ft 437 kts 128°
2026-04-23 20:32 45.01655 -121.56654 39405 ft 438 kts 128°
2026-04-23 20:32 44.99718 -121.53323 39554 ft 440 kts 128°
2026-04-23 20:32 44.97758 -121.49957 39736 ft 440 kts 129°
2026-04-23 20:32 44.95838 -121.46661 39942 ft 439 kts 128°
2026-04-23 20:33 44.93885 -121.43314 40085 ft 440 kts 129°
2026-04-23 20:33 44.91941 -121.39986 40225 ft 441 kts 129°
2026-04-23 20:33 44.89995 -121.36659 40378 ft 440 kts 129°
2026-04-23 20:33 44.88049 -121.33334 40529 ft 440 kts 129°
2026-04-23 20:34 44.86083 -121.29981 40671 ft 440 kts 129°
2026-04-23 20:34 44.84120 -121.26635 40820 ft 440 kts 130°
2026-04-23 20:34 44.80234 -121.20025 41028 ft 441 kts 130°
2026-04-23 20:35 44.76303 -121.13352 41102 ft 447 kts 130°
2026-04-23 20:35 44.72301 -121.06577 41120 ft 454 kts 130°
2026-04-23 20:36 44.68230 -120.99701 41093 ft 461 kts 130°
2026-04-23 20:36 44.64090 -120.92724 41089 ft 468 kts 130°
2026-04-23 20:37 44.59917 -120.85711 41099 ft 473 kts 130°
2026-04-23 20:37 44.55685 -120.78614 41092 ft 478 kts 130°
2026-04-23 20:38 44.51398 -120.71444 41078 ft 483 kts 130°
2026-04-23 20:38 44.47050 -120.64190 41081 ft 487 kts 130°
2026-04-23 20:39 44.42674 -120.56908 41077 ft 489 kts 130°
2026-04-23 20:39 44.38299 -120.49646 41082 ft 491 kts 130°
2026-04-23 20:40 44.33895 -120.42354 41086 ft 492 kts 130°
2026-04-23 20:40 44.29486 -120.35072 41089 ft 491 kts 130°
2026-04-23 20:41 44.25079 -120.27812 41083 ft 491 kts 131°
2026-04-23 20:41 44.20655 -120.20544 41086 ft 491 kts 131°
2026-04-23 20:42 44.16236 -120.13300 41094 ft 491 kts 131°
2026-04-23 20:42 44.11822 -120.06084 41100 ft 492 kts 131°
2026-04-23 20:43 44.07386 -119.98850 41102 ft 492 kts 131°
2026-04-23 20:43 44.02945 -119.91626 41092 ft 493 kts 131°
2026-04-23 20:44 43.98496 -119.84409 41089 ft 493 kts 131°
2026-04-23 20:44 43.94023 -119.77168 41091 ft 493 kts 131°
2026-04-23 20:45 43.89573 -119.69985 41088 ft 493 kts 131°
2026-04-23 20:45 43.85078 -119.62746 41083 ft 493 kts 131°
2026-04-23 20:46 43.80622 -119.55589 41085 ft 493 kts 131°
2026-04-23 20:46 43.76132 -119.48395 41087 ft 494 kts 131°
2026-04-23 20:47 43.71636 -119.41209 41085 ft 494 kts 131°
2026-04-23 20:47 43.67144 -119.34046 41095 ft 493 kts 132°
2026-04-23 20:48 43.62647 -119.26895 41089 ft 493 kts 132°
2026-04-23 20:48 43.58181 -119.19810 41100 ft 493 kts 132°
2026-04-23 20:49 43.53670 -119.12672 41102 ft 493 kts 132°
2026-04-23 20:49 43.49159 -119.05550 41107 ft 493 kts 132°
2026-04-23 20:50 43.44348 -118.98866 41108 ft 491 kts 143°
2026-04-23 20:50 43.38618 -118.93864 41108 ft 486 kts 157°
2026-04-23 20:51 43.32470 -118.90150 41103 ft 486 kts 159°
2026-04-23 20:51 43.26287 -118.86466 41109 ft 486 kts 159°
2026-04-23 20:52 43.20094 -118.82784 41114 ft 486 kts 159°
2026-04-23 20:52 43.13873 -118.79092 41112 ft 486 kts 159°
2026-04-23 20:53 43.07694 -118.75433 41110 ft 485 kts 159°
2026-04-23 20:53 43.01512 -118.71779 41109 ft 485 kts 159°
2026-04-23 20:54 42.95317 -118.68124 41109 ft 484 kts 159°
2026-04-23 20:54 42.89137 -118.64486 41105 ft 484 kts 159°
2026-04-23 20:55 42.82936 -118.60844 41093 ft 484 kts 159°
2026-04-23 20:55 42.76776 -118.57234 41093 ft 484 kts 159°
2026-04-23 20:56 42.70605 -118.53625 41100 ft 484 kts 159°
2026-04-23 20:56 42.64389 -118.49997 41113 ft 484 kts 160°
2026-04-23 20:57 42.58216 -118.46403 41122 ft 484 kts 160°
2026-04-23 20:57 42.52066 -118.42829 41122 ft 485 kts 160°
2026-04-23 20:58 42.45860 -118.39230 41128 ft 484 kts 160°
2026-04-23 20:58 42.39685 -118.35658 41124 ft 484 kts 159°
2026-04-23 20:59 42.33448 -118.32056 41134 ft 483 kts 161°
2026-04-23 20:59 42.27309 -118.28519 41135 ft 483 kts 161°
2026-04-23 21:00 42.21125 -118.24964 41131 ft 483 kts 160°
2026-04-23 21:00 42.14941 -118.21416 41114 ft 483 kts 161°
2026-04-23 21:01 42.08733 -118.17862 41100 ft 483 kts 161°
2026-04-23 21:01 42.02584 -118.14349 41112 ft 483 kts 161°
2026-04-23 21:02 41.96401 -118.10825 41111 ft 483 kts 161°
2026-04-23 21:02 41.90224 -118.07311 41129 ft 482 kts 161°
2026-04-23 21:03 41.84057 -118.03590 41130 ft 485 kts 154°
2026-04-23 21:03 41.78558 -117.98348 41131 ft 492 kts 140°
2026-04-23 21:04 41.73586 -117.92004 41136 ft 493 kts 139°
2026-04-23 21:04 41.68637 -117.85677 41137 ft 493 kts 139°
2026-04-23 21:05 41.63694 -117.79369 41132 ft 493 kts 139°
2026-04-23 21:05 41.58702 -117.73013 41130 ft 493 kts 139°
2026-04-23 21:06 41.53765 -117.66738 41126 ft 493 kts 139°
2026-04-23 21:06 41.48769 -117.60404 41123 ft 493 kts 139°
2026-04-23 21:07 41.43806 -117.54124 41123 ft 493 kts 139°
2026-04-23 21:07 41.38833 -117.47844 41121 ft 493 kts 139°
2026-04-23 21:08 41.33849 -117.41566 41120 ft 493 kts 139°
2026-04-23 21:08 41.28872 -117.35310 41119 ft 493 kts 139°
2026-04-23 21:09 41.23888 -117.29058 41120 ft 492 kts 140°
2026-04-23 21:09 41.18868 -117.22774 41117 ft 492 kts 140°
2026-04-23 21:10 41.13915 -117.16590 41116 ft 492 kts 140°
2026-04-23 21:10 41.08902 -117.10344 41120 ft 493 kts 140°
2026-04-23 21:11 41.03928 -117.04159 41127 ft 493 kts 140°
2026-04-23 21:11 40.98928 -116.97955 41127 ft 493 kts 140°
2026-04-23 21:12 40.93915 -116.91750 41123 ft 493 kts 140°
2026-04-23 21:12 40.88896 -116.85549 41124 ft 493 kts 140°
2026-04-23 21:13 40.83888 -116.79376 41121 ft 493 kts 140°
2026-04-23 21:13 40.78895 -116.73235 41112 ft 493 kts 140°
2026-04-23 21:14 40.73861 -116.67058 41119 ft 493 kts 140°
2026-04-23 21:14 40.68843 -116.60913 41127 ft 494 kts 140°
2026-04-23 21:15 40.63833 -116.54790 41127 ft 494 kts 140°
2026-04-23 21:15 40.58808 -116.48663 41130 ft 494 kts 140°
2026-04-23 21:16 40.53756 -116.42516 41125 ft 494 kts 140°
2026-04-23 21:16 40.48701 -116.36378 41122 ft 494 kts 140°
2026-04-23 21:17 40.43642 -116.30250 41121 ft 494 kts 141°
2026-04-23 21:17 40.38612 -116.24169 41120 ft 494 kts 141°
2026-04-23 21:18 40.33543 -116.18053 41112 ft 494 kts 141°
2026-04-23 21:18 40.28519 -116.12007 41102 ft 494 kts 141°
2026-04-23 21:19 40.23432 -116.05896 41096 ft 494 kts 141°
2026-04-23 21:19 40.18376 -115.99835 41099 ft 494 kts 141°
2026-04-23 21:20 40.13306 -115.93771 41107 ft 494 kts 141°
2026-04-23 21:20 40.08252 -115.87737 41111 ft 495 kts 141°
2026-04-23 21:21 40.03158 -115.81670 41110 ft 494 kts 141°
2026-04-23 21:21 39.98080 -115.75635 41114 ft 495 kts 141°
2026-04-23 21:22 39.93014 -115.69627 41109 ft 495 kts 141°
2026-04-23 21:22 39.87911 -115.63586 41116 ft 495 kts 142°
2026-04-23 21:23 39.82833 -115.57587 41110 ft 495 kts 142°
2026-04-23 21:23 39.77725 -115.51567 41107 ft 495 kts 141°
2026-04-23 21:24 39.72635 -115.45579 41110 ft 495 kts 142°
2026-04-23 21:24 39.67525 -115.39582 41112 ft 495 kts 142°
2026-04-23 21:25 39.62388 -115.33566 41104 ft 495 kts 142°
2026-04-23 21:25 39.57289 -115.27605 41107 ft 495 kts 142°
2026-04-23 21:26 39.52171 -115.21635 41105 ft 496 kts 142°
2026-04-23 21:26 39.47049 -115.15673 41112 ft 496 kts 143°
2026-04-23 21:27 39.41881 -115.09669 41110 ft 496 kts 143°
2026-04-23 21:27 39.36716 -115.03680 41109 ft 496 kts 143°
2026-04-23 21:28 39.31590 -114.97751 41113 ft 497 kts 142°
2026-04-23 21:28 39.26452 -114.91819 41121 ft 497 kts 143°
2026-04-23 21:29 39.21301 -114.85886 41114 ft 497 kts 143°
2026-04-23 21:29 39.16148 -114.79961 41111 ft 498 kts 143°
2026-04-23 21:30 39.10967 -114.74016 41101 ft 498 kts 143°
2026-04-23 21:30 39.05785 -114.68082 41100 ft 498 kts 143°
2026-04-23 21:31 39.00597 -114.62154 41098 ft 498 kts 143°
2026-04-23 21:31 38.95410 -114.56239 41104 ft 498 kts 143°
2026-04-23 21:32 38.90250 -114.50366 41101 ft 498 kts 143°
2026-04-23 21:32 38.85021 -114.44428 41103 ft 499 kts 143°
2026-04-23 21:33 38.79842 -114.38557 41090 ft 499 kts 144°
2026-04-23 21:33 38.74626 -114.32657 41095 ft 498 kts 144°
2026-04-23 21:34 38.69416 -114.26775 41091 ft 498 kts 144°
2026-04-23 21:34 38.64211 -114.20911 41086 ft 499 kts 144°
2026-04-23 21:35 38.59002 -114.15056 41106 ft 500 kts 145°
2026-04-23 21:35 38.53798 -114.09216 41106 ft 500 kts 144°
2026-04-23 21:36 38.46023 -114.00514 41101 ft 500 kts 145°
2026-04-23 21:37 38.40906 -113.94802 41110 ft 500 kts 145°
2026-04-23 21:37 38.35655 -113.88950 41109 ft 500 kts 145°
2026-04-23 21:38 38.30448 -113.83160 41116 ft 501 kts 145°
2026-04-23 21:38 38.25191 -113.77326 41112 ft 501 kts 145°
2026-04-23 21:39 38.19949 -113.71520 41110 ft 501 kts 145°
2026-04-23 21:39 38.14675 -113.65691 41103 ft 501 kts 145°
2026-04-23 21:40 38.09417 -113.59891 41104 ft 502 kts 146°
2026-04-23 21:40 38.04131 -113.54069 41104 ft 501 kts 146°
2026-04-23 21:41 37.98867 -113.48286 41135 ft 501 kts 146°
2026-04-23 21:41 37.93620 -113.42532 41118 ft 501 kts 146°
2026-04-23 21:42 37.88206 -113.37080 41098 ft 493 kts 154°
2026-04-23 21:42 37.82380 -113.32396 41113 ft 491 kts 155°
2026-04-23 21:43 37.76617 -113.27767 41086 ft 492 kts 155°
2026-04-23 21:43 37.70868 -113.23156 41087 ft 491 kts 156°
2026-04-23 21:44 37.65112 -113.18546 41103 ft 490 kts 156°
2026-04-23 21:44 37.59328 -113.13922 41095 ft 490 kts 156°
2026-04-23 21:45 37.53579 -113.09335 41060 ft 491 kts 156°
2026-04-23 21:45 37.50694 -113.07031 40887 ft 485 kts 156°
2026-04-23 21:45 37.47833 -113.04753 40620 ft 486 kts 156°
2026-04-23 21:45 37.44975 -113.02481 40377 ft 488 kts 156°
2026-04-23 21:46 37.42102 -113.00198 40128 ft 489 kts 156°
2026-04-23 21:46 37.39197 -112.97892 39870 ft 490 kts 156°
2026-04-23 21:46 37.36338 -112.95623 39627 ft 490 kts 157°
2026-04-23 21:46 37.33458 -112.93340 39392 ft 490 kts 157°
2026-04-23 21:47 37.30584 -112.91064 39127 ft 491 kts 157°
2026-04-23 21:47 37.24793 -112.86480 39068 ft 488 kts 157°
2026-04-23 21:48 37.19073 -112.81965 39105 ft 489 kts 157°
2026-04-23 21:48 37.13282 -112.77402 39097 ft 491 kts 158°
2026-04-23 21:49 37.07509 -112.72859 39076 ft 490 kts 158°
2026-04-23 21:49 37.01712 -112.68308 39078 ft 490 kts 158°
2026-04-23 21:50 36.95939 -112.63787 39088 ft 489 kts 158°
2026-04-23 21:50 36.90174 -112.59272 39089 ft 490 kts 158°
2026-04-23 21:51 36.84354 -112.54724 39092 ft 490 kts 158°
2026-04-23 21:51 36.78578 -112.50221 39097 ft 490 kts 157°
2026-04-23 21:52 36.72804 -112.45728 39097 ft 489 kts 157°
2026-04-23 21:52 36.67035 -112.41245 39072 ft 489 kts 157°
2026-04-23 21:52 36.64121 -112.38987 38821 ft 490 kts 157°
2026-04-23 21:53 36.61273 -112.36774 38543 ft 480 kts 157°
2026-04-23 21:53 36.58464 -112.34585 38247 ft 474 kts 158°
2026-04-23 21:53 36.55644 -112.32401 37944 ft 470 kts 158°
2026-04-23 21:53 36.52869 -112.30264 37653 ft 469 kts 158°
2026-04-23 21:54 36.50116 -112.28144 37358 ft 468 kts 158°
2026-04-23 21:54 36.47330 -112.25994 37075 ft 468 kts 158°
2026-04-23 21:54 36.44587 -112.23877 36763 ft 468 kts 158°
2026-04-23 21:54 36.41792 -112.21722 36407 ft 468 kts 158°
2026-04-23 21:55 36.39036 -112.19617 36110 ft 466 kts 159°
2026-04-23 21:55 36.36156 -112.17806 35800 ft 455 kts 168°
2026-04-23 21:55 36.33209 -112.16514 35499 ft 449 kts 173°
2026-04-23 21:55 36.30232 -112.15304 35154 ft 450 kts 172°
2026-04-23 21:56 36.27244 -112.14043 34839 ft 452 kts 171°
2026-04-23 21:56 36.24295 -112.12791 34522 ft 453 kts 171°
2026-04-23 21:56 36.21296 -112.11533 34217 ft 453 kts 171°
2026-04-23 21:56 36.18316 -112.10293 33871 ft 454 kts 171°
2026-04-23 21:57 36.15321 -112.09042 33537 ft 454 kts 171°
2026-04-23 21:57 36.12323 -112.07782 33230 ft 452 kts 171°
2026-04-23 21:57 36.09357 -112.06534 32931 ft 450 kts 171°
2026-04-23 21:57 36.06405 -112.05296 32617 ft 448 kts 171°
2026-04-23 21:58 36.03444 -112.04060 32300 ft 446 kts 171°
2026-04-23 21:58 36.00533 -112.02846 31980 ft 444 kts 171°
2026-04-23 21:58 35.97579 -112.01615 31647 ft 442 kts 171°
2026-04-23 21:58 35.94661 -112.00399 31317 ft 441 kts 171°
2026-04-23 21:59 35.91781 -111.99198 31009 ft 439 kts 171°
2026-04-23 21:59 35.88867 -111.97983 30673 ft 437 kts 171°
2026-04-23 21:59 35.86007 -111.96790 30347 ft 435 kts 171°
2026-04-23 22:00 35.80164 -111.94377 29806 ft 446 kts 171°
2026-04-23 22:00 35.77161 -111.93142 29553 ft 451 kts 171°
2026-04-23 22:00 35.74189 -111.91907 29301 ft 452 kts 171°
2026-04-23 22:00 35.71179 -111.90649 29103 ft 448 kts 171°
2026-04-23 22:01 35.65260 -111.88192 29113 ft 447 kts 171°
2026-04-23 22:01 35.59331 -111.85754 29118 ft 449 kts 171°
2026-04-23 22:02 35.53375 -111.83288 29108 ft 449 kts 171°
2026-04-23 22:02 35.47451 -111.80847 29109 ft 448 kts 171°
2026-04-23 22:03 35.41515 -111.78410 29106 ft 448 kts 171°
2026-04-23 22:03 35.35586 -111.75970 29126 ft 447 kts 171°
2026-04-23 22:04 35.29657 -111.73540 29128 ft 447 kts 171°
2026-04-23 22:04 35.23714 -111.71109 29150 ft 447 kts 171°
2026-04-23 22:05 35.17800 -111.68686 29166 ft 445 kts 171°
2026-04-23 22:05 35.11895 -111.67358 29178 ft 421 kts 190°
2026-04-23 22:06 35.05971 -111.67338 29138 ft 423 kts 188°
2026-04-23 22:06 35.00100 -111.67252 29154 ft 423 kts 189°
2026-04-23 22:07 34.94199 -111.67195 29122 ft 422 kts 189°
2026-04-23 22:07 34.88264 -111.67118 28902 ft 426 kts 189°
2026-04-23 22:08 34.85269 -111.67091 28370 ft 424 kts 189°
2026-04-23 22:08 34.82365 -111.67052 27833 ft 417 kts 189°
2026-04-23 22:08 34.79473 -111.67005 27304 ft 412 kts 189°
2026-04-23 22:08 34.76624 -111.66971 26740 ft 408 kts 188°
2026-04-23 22:09 34.73796 -111.66942 26225 ft 405 kts 188°
2026-04-23 22:09 34.70971 -111.66913 25670 ft 404 kts 189°
2026-04-23 22:09 34.68149 -111.66881 25138 ft 402 kts 188°
2026-04-23 22:09 34.65363 -111.66847 24602 ft 399 kts 188°
2026-04-23 22:10 34.62602 -111.66814 24074 ft 396 kts 188°
2026-04-23 22:10 34.59835 -111.66782 23541 ft 394 kts 188°
2026-04-23 22:10 34.57120 -111.66752 23031 ft 392 kts 188°
2026-04-23 22:10 34.54396 -111.66724 22504 ft 390 kts 188°
2026-04-23 22:11 34.51712 -111.66695 21986 ft 387 kts 187°
2026-04-23 22:11 34.49014 -111.66664 21469 ft 386 kts 187°
2026-04-23 22:11 34.46333 -111.66633 20952 ft 383 kts 187°
2026-04-23 22:11 34.43729 -111.66787 20472 ft 368 kts 198°
2026-04-23 22:12 34.41268 -111.67526 19966 ft 363 kts 202°
2026-04-23 22:12 34.38835 -111.68298 19509 ft 360 kts 201°
2026-04-23 22:12 34.36398 -111.69027 19009 ft 359 kts 201°
2026-04-23 22:12 34.33984 -111.69750 18549 ft 356 kts 201°
2026-04-23 22:13 34.31598 -111.70480 18073 ft 354 kts 201°
2026-04-23 22:13 34.29198 -111.71217 17654 ft 350 kts 201°
2026-04-23 22:13 34.26840 -111.71937 17135 ft 353 kts 201°
2026-04-23 22:13 34.24479 -111.72652 16675 ft 346 kts 200°
2026-04-23 22:14 34.22131 -111.73360 16225 ft 346 kts 200°
2026-04-23 22:14 34.19797 -111.74068 15748 ft 344 kts 200°
2026-04-23 22:14 34.17507 -111.74764 15284 ft 342 kts 200°
2026-04-23 22:14 34.15201 -111.75465 14841 ft 340 kts 200°
2026-04-23 22:15 34.12923 -111.76156 14374 ft 338 kts 199°
2026-04-23 22:15 34.10625 -111.76850 13942 ft 336 kts 199°
2026-04-23 22:15 34.08353 -111.77537 13464 ft 336 kts 199°
2026-04-23 22:15 34.06112 -111.78213 13045 ft 333 kts 199°
2026-04-23 22:16 34.03867 -111.78890 12587 ft 331 kts 199°
2026-04-23 22:16 34.01654 -111.79555 12148 ft 324 kts 199°
2026-04-23 22:16 33.99486 -111.80204 11728 ft 317 kts 198°
2026-04-23 22:16 33.97361 -111.80843 11304 ft 311 kts 198°
2026-04-23 22:17 33.95305 -111.81464 10941 ft 303 kts 198°
2026-04-23 22:17 33.93379 -111.82044 10707 ft 293 kts 198°
2026-04-23 22:17 33.91402 -111.82640 10335 ft 289 kts 198°
2026-04-23 22:17 33.89461 -111.83226 9882 ft 288 kts 198°
2026-04-23 22:18 33.87497 -111.83821 9439 ft 286 kts 198°
2026-04-23 22:18 33.85586 -111.84422 9001 ft 283 kts 200°
2026-04-23 22:18 33.83721 -111.85221 8547 ft 280 kts 204°
2026-04-23 22:18 33.81918 -111.86061 8114 ft 278 kts 203°
2026-04-23 22:19 33.80082 -111.86874 7663 ft 277 kts 201°
2026-04-23 22:19 33.78189 -111.87322 7166 ft 279 kts 186°
2026-04-23 22:19 33.76257 -111.87426 6523 ft 279 kts 185°
2026-04-23 22:19 33.74336 -111.87618 5883 ft 277 kts 187°
2026-04-23 22:20 33.72406 -111.87865 5244 ft 276 kts 187°
2026-04-23 22:20 33.70524 -111.88166 4576 ft 274 kts 189°
2026-04-23 22:20 33.68686 -111.88724 4099 ft 262 kts 204°
2026-04-23 22:20 33.67238 -111.89836 4181 ft 234 kts 220°
2026-04-23 22:21 33.66047 -111.91031 4279 ft 213 kts 221°
2026-04-23 22:21 33.65150 -111.92333 4221 ft 198 kts 249°
2026-04-23 22:21 33.65109 -111.93910 4110 ft 186 kts 289°
2026-04-23 22:21 33.65975 -111.95032 4046 ft 192 kts 332°
2026-04-23 22:22 33.67316 -111.95128 4047 ft 199 kts 17°
2026-04-23 22:22 33.68465 -111.94186 4132 ft 201 kts 41°
2026-04-23 22:22 33.69506 -111.93031 4171 ft 204 kts 41°
2026-04-23 22:22 33.70526 -111.91856 4108 ft 203 kts 50°
2026-04-23 22:23 33.71017 -111.90306 4042 ft 201 kts 89°
2026-04-23 22:23 33.70563 -111.88831 4065 ft 183 kts 135°
2026-04-23 22:23 33.69520 -111.88045 4107 ft 176 kts 157°
2026-04-23 22:23 33.68465 -111.87434 4026 ft 158 kts 157°
2026-04-23 22:24 33.67461 -111.86987 3664 ft 143 kts 170°
2026-04-23 22:24 33.66508 -111.86884 3352 ft 134 kts 187°
2026-04-23 22:24 33.65642 -111.87203 2972 ft 129 kts 213°
2026-04-23 22:24 33.64987 -111.87910 2544 ft 126 kts 224°
2026-04-23 22:25 33.64380 -111.88631 2198 ft 123 kts 224°
2026-04-23 22:25 33.63762 -111.89353 1878 ft 123 kts 223°
2026-04-23 22:25 33.63152 -111.90060 1584 ft 123 kts 223°
2026-04-23 22:25 33.62582 -111.90716 1490 ft 95 kts 223°
2026-04-23 22:26 33.62196 -111.91161 1476 ft 48 kts 224°
2026-04-23 22:26 33.62081 -111.91293 1471 ft 11 kts 223°
2026-04-23 22:26 33.62083 -111.91328 1471 ft 5 kts 351°
2026-04-23 22:26 33.62127 -111.91332 1471 ft 5 kts 360°
2026-04-23 22:27 33.62168 -111.91305 1472 ft 8 kts 43°
2026-04-23 22:27 33.62212 -111.91255 1475 ft 4 kts 44°
2026-04-23 22:27 33.62242 -111.91221 1476 ft 7 kts 44°
2026-04-23 22:27 33.62271 -111.91225 1476 ft 4 kts 302°
2026-04-23 22:28 33.62260 -111.91248 1476 ft 6 kts 220°
2026-04-23 22:28 33.62236 -111.91275 1474 ft 1 kts 239°
2026-04-23 22:28 33.62241 -111.91287 1474 ft 1 kts 313°
2026-04-23 22:28 33.62246 -111.91294 1474 ft 0 kts 313°